Temperature
6 6 6 6 6 7 7 7 7 7 7 8 8 8 8 8 8 8 8 9 9 9 9 9 9 9 9 9 9 9 9 9 9 8 8 8 8 7 7 7 7 6 6
6 6 6 6 6 7 6 6 7 7 7 7 7 8 8 8 8 8 8 8 9 9 9 8 8 9 8 8 8 9 9 9 8 8 8 8 7 7 7 7 6 6 6
5 6 6 6 6 6 6 6 6 6 7 7 7 7 7 8 8 8 8 8 9 9 9 9 8 8 8 8 8 8 8 8 8 8 8 7 7 7 7 6 6 6 5
5 5 5 5 6 6 6 6 6 6 6 7 7 7 7 7 8 8 8 8 8 8 8 9 9 9 8 8 8 8 8 8 8 7 7 7 7 7 6 6 6 6 5
5 5 5 5 5 5 5 6 6 6 6 6 6 7 7 7 7 7 8 8 8 8 8 8 8 9 8 8 8 8 8 8 7 7 7 7 6 6 6 6 6 5 5
5 4 5 5 5 5 5 5 6 6 6 6 6 6 6 7 7 7 8 8 8 8 8 8 8 8 8 8 8 8 8 7 7 7 7 6 6 6 6 6 5 5 4
4 4 4 4 5 5 5 5 5 5 5 5 6 6 6 6 7 7 8 8 8 8 8 8 8 8 8 8 8 8 7 7 7 7 7 7 7 6 6 6 5 5 4
4 4 4 4 4 5 5 5 5 5 5 5 5 5 6 6 7 7 7 7 7 7 7 8 8 8 8 8 7 7 7 7 7 7 7 7 7 6 6 6 5 5 4
3 3 4 4 4 4 4 4 4 4 4 4 4 5 5 6 6 6 7 7 7 7 7 7 7 7 7 7 7 7 7 7 6 6 6 6 6 6 5 5 5 4 4
3 3 3 3 3 3 3 4 4 4 4 4 4 5 5 5 6 6 6 6 6 7 7 7 7 7 7 7 7 7 7 6 6 6 6 6 5 5 5 5 4 4 3
2 2 2 2 2 3 3 3 4 4 4 4 4 4 5 5 5 6 6 6 6 6 6 6 6 7 7 7 7 7 6 6 6 5 5 5 5 5 4 4 4 3 3
2 2 2 2 2 2 3 3 3 3 4 4 4 4 4 5 5 5 6 6 6 6 6 6 6 6 6 6 6 6 6 6 5 5 5 5 5 4 4 3 3 3 2
1 1 2 2 2 2 2 3 3 3 3 3 3 4 4 4 4 5 5 5 6 5 5 5 5 5 6 6 6 5 5 5 5 5 5 4 4 4 3 3 3 2 2
1 1 1 1 2 2 2 2 2 2 3 3 3 3 3 4 4 4 5 5 5 5 5 5 5 5 5 5 5 5 5 5 5 5 4 4 4 3 3 3 2 2 2
1 1 1 1 1 1 2 2 2 2 2 2 2 3 3 3 4 4 4 4 4 5 4 4 5 5 4 4 4 4 4 4 4 4 4 4 3 3 2 2 2 1 1
0 1 1 1 1 1 1 2 2 2 2 2 3 2 3 3 3 3 3 4 4 4 4 4 4 4 4 4 4 4 4 4 4 3 3 3 3 3 2 2 1 1 1
-0 0 0 0 1 1 1 1 1 2 2 2 2 2 2 3 3 3 3 3 4 4 4 4 4 4 4 4 3 4 3 3 3 3 3 3 3 2 2 1 1 1 0
-0 -0 -0 -0 0 0 0 1 1 1 1 2 2 2 2 2 2 3 3 3 3 3 3 3 3 3 3 3 3 3 3 3 3 3 3 2 2 2 2 1 1 0 -0
-1 -1 -0 -0 -0 -0 0 0 0 1 1 1 1 2 2 2 2 2 2 2 3 3 3 3 3 3 3 3 3 3 3 3 2 2 2 2 2 2 1 1 1 0 -0
-1 -1 -1 -1 -1 -1 -0 -0 -0 0 0 1 1 1 1 1 1 1 2 2 2 2 2 2 3 3 3 3 3 3 3 2 2 2 2 2 2 1 1 1 0 0 -0
-2 -2 -1 -1 -1 -1 -1 -1 -1 -0 -0 -0 0 0 0 0 1 1 1 1 2 2 2 2 2 2 3 3 3 2 2 2 2 2 2 2 1 1 1 1 0 -0 -1
-2 -2 -2 -2 -2 -2 -1 -1 -1 -1 -1 -0 -0 -0 -0 -0 0 0 1 1 1 1 2 2 2 2 2 2 2 2 2 2 2 2 2 1 1 1 0 0 -0 -1 -1
-3 -3 -3 -2 -2 -2 -2 -2 -1 -1 -1 -1 -1 -1 -0 -0 -0 0 0 1 1 1 1 1 2 2 2 2 2 2 2 2 2 2 2 1 1 1 0 0 -0 -1 -1
-3 -3 -3 -3 -3 -3 -3 -2 -2 -2 -2 -2 -1 -1 -1 -1 -1 -0 -0 0 0 1 1 1 1 1 2 2 2 2 1 1 1 1 1 1 1 1 0 -0 -0 -1 -1
-4 -4 -4 -4 -4 -3 -3 -3 -2 -2 -2 -2 -2 -2 -1 -1 -1 -1 -0 -0 -0 0 1 1 1 1 1 1 1 1 1 1 1 1 1 1 1 0 0 -0 -1 -1 -1
-4 -4 -4 -4 -4 -4 -3 -3 -3 -3 -3 -2 -2 -2 -2 -2 -1 -1 -1 -1 -0 -0 0 0 1 1 1 1 1 1 1 1 1 1 1 1 0 0 -0 -1 -1 -1 -2
Wind_Speed
6 5 6 7 6 6 6 7 6 5 6 8 8 9 10 10 11 11 11 11 13 12 11 12 12 10 8 7 6 6 5 5 5 3 1 2 4 4 3 4 5 5 5
5 5 5 5 4 4 5 6 5 6 6 6 7 8 9 9 10 11 12 12 13 13 13 12 12 10 10 8 7 7 6 5 5 5 2 2 3 4 3 3 2 3 3
4 4 3 3 2 3 4 4 4 5 4 5 6 7 8 9 9 11 11 12 13 13 13 13 13 13 12 9 9 8 6 5 4 5 3 2 1 2 2 1 1 1 2
4 3 3 3 3 3 3 3 4 4 4 4 5 6 7 8 9 10 10 11 12 12 12 12 12 13 14 12 10 9 7 6 5 5 4 3 2 2 3 2 2 1 1
3 3 3 3 3 3 3 3 3 3 4 3 4 4 5 6 8 9 10 11 11 11 10 11 11 13 15 13 10 10 9 7 6 5 4 3 3 3 4 3 3 1 1
4 4 4 3 3 3 3 3 2 2 2 2 3 4 4 5 7 9 10 11 11 11 11 10 10 11 14 15 15 14 13 10 9 7 5 5 6 5 4 4 3 2 2
4 4 4 3 3 3 3 3 2 2 2 3 3 4 5 6 6 8 10 10 11 11 11 10 8 9 12 10 12 12 11 12 12 10 8 8 7 8 7 5 4 3 3
4 4 5 4 4 4 3 3 3 3 2 3 4 4 4 4 5 6 7 9 9 9 10 10 10 9 11 11 10 8 7 7 8 7 7 7 6 7 8 6 5 3 2
5 5 5 5 5 5 4 4 3 3 3 3 3 2 2 2 3 5 7 6 7 8 8 9 10 9 13 14 11 9 7 4 5 8 7 7 8 10 9 6 5 3 2
5 5 5 4 4 4 4 4 4 3 4 3 3 2 2 2 3 5 6 5 6 6 6 8 11 10 13 15 11 10 9 7 6 5 5 6 6 8 9 7 7 4 2
5 5 4 4 4 4 4 4 3 3 3 2 2 2 2 2 2 3 5 5 6 6 5 5 7 11 12 14 12 9 10 9 7 7 5 5 5 4 3 3 3 4 4
5 5 5 4 4 4 4 4 3 3 2 2 2 2 2 1 2 1 3 4 5 6 5 5 6 10 11 12 10 10 13 11 7 6 6 5 4 4 3 3 4 4 2
5 5 5 5 4 4 3 4 3 2 1 1 1 2 2 2 1 1 1 3 4 4 4 6 7 9 9 8 11 13 11 8 7 6 6 5 4 5 4 4 5 6 6
5 5 5 4 5 5 3 3 2 2 2 2 1 2 2 2 1 1 0 2 4 4 4 6 7 7 6 8 9 8 6 7 7 6 6 5 5 5 4 4 3 3 3
5 5 5 4 4 4 3 3 3 3 3 3 2 2 2 3 3 3 2 2 3 4 5 4 4 4 4 4 5 5 5 6 6 5 6 6 5 5 4 3 3 3 2
5 5 4 3 3 3 3 4 5 4 6 6 5 4 3 4 4 3 2 2 4 7 6 5 5 4 5 6 6 5 5 6 6 6 6 6 6 6 5 4 3 3 3
5 5 4 4 3 3 3 3 4 6 5 5 4 3 2 2 2 2 1 2 5 7 5 5 5 5 5 5 6 5 5 5 6 6 6 6 6 6 6 5 5 4 3
5 6 5 4 4 3 3 3 3 3 4 4 3 2 2 2 2 1 0 2 4 4 4 5 5 5 5 5 6 5 5 6 6 6 6 6 6 6 6 6 5 5 4
5 4 4 4 4 4 3 3 3 3 3 3 3 2 1 1 1 0 1 2 3 3 3 4 4 4 4 5 6 6 6 6 6 6 6 7 6 6 6 6 6 7 5
5 7 7 4 3 3 3 3 3 3 3 3 3 2 1 1 0 0 0 1 2 3 3 3 3 4 4 5 6 6 6 6 7 6 6 6 6 6 7 7 6 6 5
4 6 8 5 3 4 3 3 3 3 3 3 3 3 3 2 2 2 2 1 2 2 3 3 3 4 4 5 6 7 7 6 7 7 6 6 6 6 6 6 6 6 5
4 4 4 4 4 3 3 3 3 3 3 3 3 3 3 2 2 2 2 2 2 2 2 3 3 4 5 5 7 7 7 7 7 7 7 7 6 6 6 6 6 6 6
4 4 4 4 4 5 4 3 3 3 3 3 3 3 2 2 2 2 2 1 1 1 2 3 4 4 4 4 6 7 8 8 8 9 8 8 7 7 7 7 8 8 7
4 4 4 4 4 4 3 3 3 4 4 3 3 3 3 2 2 2 2 1 1 1 2 3 4 5 5 5 5 5 6 8 9 9 10 9 8 7 7 7 7 8 8
4 5 5 4 5 4 4 4 3 4 4 4 3 3 2 2 2 2 1 1 1 1 2 2 3 5 6 7 6 7 9 12 11 10 9 8 9 8 8 8 8 8 8
5 5 5 4 4 4 4 4 4 4 4 4 4 3 3 3 2 2 2 2 1 2 2 2 3 5 6 7 8 10 12 13 13 14 11 9 9 8 8 7 9 9 9
Wind_Direction
276 267 266 254 242 236 230 229 232 239 233 229 222 219 215 216 209 206 210 205 206 203 199 198 197 189 189 185 179 176 181 179 200 210 178 166 173 179 175 183 194 197 206
289 278 272 259 248 239 235 231 230 232 235 236 227 221 217 216 211 205 208 207 204 202 200 196 197 187 188 186 183 182 186 183 184 193 191 180 185 183 171 172 171 187 199
304 295 294 272 257 253 245 237 229 230 236 239 232 226 223 218 215 211 208 207 203 201 197 195 194 185 190 189 184 185 186 179 174 177 184 178 164 155 146 154 160 157 189
314 306 305 290 265 263 264 251 244 237 235 236 236 234 234 223 215 212 209 204 200 199 194 193 192 188 188 184 183 183 177 170 166 168 172 163 161 152 149 172 193 196 208
333 317 303 303 290 271 270 262 246 242 241 233 232 238 245 227 216 212 206 198 197 195 192 192 192 189 185 183 180 178 174 175 173 177 179 169 172 169 188 181 191 183 192
349 333 318 317 308 295 292 287 266 260 260 253 245 244 249 235 221 215 204 196 193 191 189 188 187 185 182 180 176 175 176 180 185 187 192 192 200 193 177 173 164 157 219
344 337 333 327 318 309 304 314 309 288 283 280 270 257 252 237 222 214 201 195 190 189 185 183 182 183 177 178 174 173 178 181 182 184 189 199 196 190 175 175 180 182 198
340 338 337 335 326 329 330 328 318 307 292 279 272 266 260 236 216 205 190 191 187 184 182 181 179 179 178 170 167 171 179 187 187 185 190 194 187 176 176 173 167 133 96
336 333 329 335 334 332 329 321 317 309 297 287 278 274 278 265 233 204 180 176 178 178 177 178 177 180 175 165 167 169 170 179 165 160 157 153 151 153 148 134 138 133 150
322 321 324 329 326 319 311 307 308 303 297 296 302 299 285 275 262 207 173 164 168 172 176 179 179 178 175 168 172 173 176 176 154 142 135 129 132 144 150 158 164 159 146
308 314 319 316 312 305 311 307 305 307 305 307 318 316 301 276 276 218 182 167 171 169 177 184 185 173 174 174 175 180 177 162 155 146 136 129 125 130 135 127 144 158 161
311 312 311 311 311 315 312 310 305 308 313 323 343 347 346 325 313 237 200 179 172 171 177 181 178 173 173 173 174 168 156 148 145 143 144 149 151 149 135 114 99 90 99
306 303 304 308 305 300 297 306 315 317 319 316 336 330 329 330 318 318 210 171 169 171 167 162 164 167 169 171 165 158 153 151 150 153 161 163 155 148 131 112 91 83 72
302 299 299 303 305 303 299 295 296 306 304 307 301 302 311 310 320 354 226 166 149 147 143 144 142 151 158 156 155 155 156 160 158 160 157 145 137 139 139 135 129 115 93
298 298 301 299 302 314 320 307 291 275 268 275 269 269 268 284 284 292 280 218 184 167 145 136 137 147 151 152 150 149 152 152 147 142 145 146 146 145 141 135 133 127 116
301 301 300 300 304 308 318 327 324 302 309 305 286 273 270 273 282 287 278 233 181 157 144 153 162 167 173 171 165 160 161 160 155 151 153 155 155 154 145 141 139 138 136
295 294 293 290 289 293 300 307 322 337 335 318 302 288 289 286 282 284 249 185 168 152 147 163 173 177 178 175 170 167 168 161 155 154 155 154 152 152 149 150 149 139 132
294 293 289 279 277 276 278 278 278 294 313 323 325 307 308 306 291 285 201 128 154 154 163 172 177 179 178 176 171 165 158 154 155 155 154 154 155 157 157 159 160 155 147
291 288 282 275 274 270 271 272 272 275 282 291 307 317 328 330 316 290 139 150 170 177 176 178 177 176 175 172 167 163 160 160 160 156 156 159 161 160 160 160 160 154 143
294 292 293 280 270 272 275 271 273 276 283 280 277 276 304 331 294 254 227 176 182 187 184 184 181 172 170 171 165 162 160 159 159 155 156 160 164 164 162 158 157 157 155
293 296 296 290 271 265 263 260 261 261 268 270 270 269 271 244 235 240 241 233 207 198 191 183 180 173 170 170 166 164 161 162 162 159 159 160 161 160 156 153 150 147 144
286 286 286 281 278 270 263 255 255 258 265 262 268 279 285 280 250 247 244 251 241 216 198 185 182 177 178 179 171 167 164 163 162 161 159 158 156 151 147 144 142 142 143
291 289 288 286 283 279 279 267 261 262 269 264 260 260 265 258 245 238 237 246 239 207 189 178 174 174 171 170 169 171 171 171 168 164 159 156 154 150 149 148 147 147 149
289 286 282 280 281 272 264 264 262 264 265 261 254 251 256 250 244 240 228 225 219 189 167 168 171 170 168 162 156 159 159 155 152 156 155 154 152 149 146 146 148 150 150
286 283 280 276 273 267 263 264 264 262 264 262 251 247 244 234 231 230 220 205 194 181 173 165 158 158 162 160 155 151 151 150 148 147 146 148 145 144 144 143 145 144 144
285 282 280 276 270 262 258 257 258 259 262 261 249 235 224 220 220 214 207 195 186 181 179 166 156 156 156 153 149 148 147 147 147 146 142 142 142 141 141 141 140 141 142
Height
1381 1380 1380 1379 1379 1379 1379 1380 1381 1383 1386 1389 1391 1394 1397 1400 1403 1406 1409 1413 1416 1420 1424 1427 1430 1435 1439 1442 1445 1448 1451 1454 1455 1457 1460 1463 1464 1466 1467 1468 1469 1469 1469
1377 1376 1375 1374 1374 1374 1374 1375 1377 1379 1381 1383 1385 1388 1390 1393 1396 1399 1402 1405 1409 1412 1416 1420 1424 1427 1432 1436 1439 1442 1445 1448 1450 1452 1455 1458 1459 1461 1462 1463 1464 1464 1464
1374 1372 1372 1371 1370 1370 1371 1372 1373 1374 1376 1378 1379 1381 1384 1386 1389 1392 1395 1398 1402 1406 1410 1413 1417 1420 1425 1430 1433 1437 1440 1443 1445 1447 1449 1452 1454 1456 1457 1458 1459 1459 1459
1372 1370 1369 1368 1367 1367 1367 1368 1369 1370 1371 1372 1373 1375 1377 1379 1382 1386 1389 1392 1395 1399 1403 1407 1411 1414 1419 1423 1427 1431 1434 1437 1440 1443 1445 1446 1448 1450 1452 1452 1453 1454 1454
1369 1367 1366 1365 1365 1365 1365 1366 1366 1366 1367 1367 1368 1369 1370 1372 1375 1378 1382 1385 1388 1392 1396 1400 1404 1408 1413 1417 1420 1424 1428 1431 1434 1437 1439 1441 1442 1444 1445 1447 1448 1449 1448
1367 1365 1365 1364 1363 1363 1362 1363 1363 1363 1363 1363 1364 1364 1365 1367 1369 1372 1375 1378 1382 1385 1389 1394 1398 1402 1406 1411 1415 1419 1423 1426 1429 1431 1433 1435 1437 1439 1441 1442 1443 1443 1443
1366 1365 1363 1362 1361 1360 1360 1360 1359 1359 1359 1359 1360 1360 1360 1362 1364 1367 1370 1373 1376 1380 1383 1388 1392 1396 1401 1405 1409 1413 1417 1421 1424 1426 1428 1430 1432 1434 1436 1437 1438 1438 1438
1366 1364 1362 1361 1360 1359 1358 1358 1357 1357 1357 1356 1356 1357 1357 1358 1361 1363 1365 1368 1371 1375 1378 1382 1386 1391 1396 1400 1404 1408 1411 1415 1418 1421 1423 1425 1428 1431 1432 1433 1434 1434 1434
1365 1363 1361 1360 1358 1357 1357 1356 1355 1354 1354 1354 1354 1353 1353 1354 1356 1359 1362 1364 1366 1370 1374 1378 1382 1386 1391 1395 1399 1402 1406 1409 1413 1416 1419 1421 1423 1426 1427 1428 1428 1429 1429
1364 1362 1361 1359 1358 1356 1355 1354 1353 1352 1352 1351 1351 1351 1350 1351 1353 1355 1358 1360 1362 1366 1370 1374 1378 1382 1386 1390 1393 1397 1400 1403 1407 1410 1413 1416 1418 1420 1422 1423 1424 1424 1424
1363 1361 1359 1358 1357 1355 1353 1352 1351 1350 1350 1350 1349 1349 1349 1350 1351 1352 1355 1357 1360 1363 1366 1369 1373 1377 1381 1386 1389 1392 1395 1399 1403 1406 1408 1411 1413 1415 1417 1418 1420 1421 1421
1360 1359 1357 1356 1354 1353 1351 1350 1349 1348 1348 1347 1347 1346 1347 1348 1349 1350 1352 1355 1358 1360 1363 1366 1369 1373 1377 1381 1385 1388 1392 1396 1398 1401 1403 1406 1408 1411 1413 1414 1416 1417 1418
1358 1356 1355 1353 1351 1350 1349 1347 1347 1346 1345 1345 1345 1345 1345 1346 1347 1348 1350 1353 1355 1358 1360 1363 1367 1370 1374 1377 1381 1384 1388 1390 1393 1396 1399 1401 1404 1407 1409 1410 1412 1413 1414
1355 1353 1351 1350 1348 1348 1347 1346 1345 1344 1343 1343 1343 1343 1343 1344 1344 1346 1348 1350 1352 1355 1358 1361 1364 1367 1370 1373 1377 1380 1383 1385 1388 1392 1395 1398 1400 1402 1404 1406 1408 1409 1411
1352 1350 1349 1347 1346 1344 1343 1343 1342 1342 1343 1342 1342 1342 1342 1341 1342 1344 1345 1347 1349 1352 1354 1357 1361 1363 1366 1369 1372 1375 1378 1381 1384 1387 1391 1394 1396 1398 1401 1403 1405 1406 1407
1349 1347 1346 1344 1343 1342 1340 1340 1340 1340 1340 1340 1340 1341 1341 1341 1342 1342 1343 1345 1347 1350 1352 1354 1357 1360 1362 1365 1368 1371 1374 1377 1380 1384 1387 1390 1392 1394 1397 1400 1401 1403 1404
1346 1344 1343 1342 1340 1339 1338 1337 1336 1337 1337 1338 1338 1338 1339 1339 1339 1340 1341 1343 1345 1347 1349 1351 1354 1357 1359 1362 1365 1367 1370 1373 1377 1380 1383 1386 1389 1391 1393 1396 1398 1400 1402
1343 1341 1340 1339 1338 1337 1336 1336 1335 1334 1333 1333 1334 1335 1336 1336 1337 1338 1339 1340 1341 1344 1346 1349 1351 1354 1357 1359 1361 1364 1367 1370 1374 1377 1380 1383 1386 1388 1390 1392 1394 1397 1399
1339 1338 1336 1335 1334 1334 1333 1333 1332 1331 1331 1330 1331 1332 1333 1334 1335 1335 1336 1337 1339 1341 1343 1346 1348 1351 1353 1356 1359 1361 1364 1367 1370 1374 1377 1380 1382 1385 1387 1389 1392 1394 1396
1335 1334 1333 1331 1331 1330 1330 1329 1329 1328 1328 1328 1328 1329 1330 1331 1331 1332 1334 1335 1337 1339 1341 1343 1345 1348 1350 1353 1356 1358 1361 1364 1367 1370 1374 1377 1379 1382 1384 1387 1389 1391 1394
1331 1330 1329 1328 1327 1327 1326 1326 1326 1325 1325 1325 1326 1327 1328 1328 1328 1329 1331 1332 1334 1336 1338 1340 1342 1345 1347 1350 1353 1356 1358 1361 1364 1367 1371 1374 1377 1380 1382 1385 1387 1389 1392
1327 1326 1325 1324 1323 1323 1323 1323 1322 1322 1322 1322 1323 1324 1325 1326 1326 1327 1328 1330 1332 1334 1336 1338 1340 1342 1345 1348 1351 1353 1356 1358 1361 1365 1368 1371 1374 1377 1380 1382 1385 1387 1390
1323 1322 1321 1320 1320 1319 1319 1319 1319 1319 1319 1319 1320 1321 1322 1323 1324 1325 1326 1328 1329 1331 1333 1335 1337 1340 1343 1346 1349 1351 1353 1356 1359 1362 1365 1368 1372 1375 1377 1380 1383 1385 1388
1319 1318 1317 1316 1316 1315 1315 1315 1315 1316 1316 1317 1317 1318 1319 1320 1321 1322 1324 1325 1327 1329 1331 1333 1335 1338 1341 1344 1347 1349 1352 1355 1358 1361 1364 1367 1370 1373 1376 1378 1381 1384 1386
1315 1314 1313 1313 1312 1312 1312 1312 1312 1313 1313 1313 1314 1315 1316 1317 1318 1320 1322 1323 1325 1327 1329 1331 1334 1336 1339 1342 1344 1347 1350 1353 1356 1359 1362 1365 1368 1371 1374 1377 1380 1382 1385
1311 1310 1309 1309 1308 1308 1308 1308 1309 1309 1310 1310 1311 1312 1313 1314 1316 1317 1319 1321 1323 1325 1327 1329 1332 1335 1338 1340 1343 1346 1349 1351 1355 1358 1361 1364 1367 1370 1373 1376 1379 1381 1384